HTR127 MPTO-KISP

Flight info

Callsign HTR127
Flight time 4h 39m
Altitude 34000
Route EGETA DCT REPIT UM542 SIA UR625 PIBLO/N0464F360 UR625 ENAMO/N0466F350 Y307 NUCAR AR3 CASPR Y307 CARPX/N0456F370 AR3 JRDAN AR19 CHIEZ Q161 KALDA SARDI1
Aircraft A319/M-SDE2E3FGILORWXYZ/HB1

Departure

Time 2026-04-13 14:45
Airport Tocumen International Airport (MPTO)

Arrival

Time 2026-04-13 19:24
Airport Long Island MacArthur Airport (KISP)
Time Latitude Longitude Altitude Speed Heading
2026-04-13 14:18 9.08541 -79.37561 144 ft 0 kts 121°
2026-04-13 14:31 9.08550 -79.37578 144 ft 3 kts 120°
2026-04-13 14:31 9.08559 -79.37594 144 ft 3 kts 120°
2026-04-13 14:32 9.08569 -79.37611 144 ft 3 kts 122°
2026-04-13 14:32 9.08582 -79.37624 144 ft 3 kts 166°
2026-04-13 14:32 9.08595 -79.37626 144 ft 2 kts 198°
2026-04-13 14:32 9.08587 -79.37631 144 ft 0 kts 211°
2026-04-13 14:35 9.08578 -79.37636 144 ft 4 kts 211°
2026-04-13 14:35 9.08541 -79.37658 144 ft 9 kts 211°
2026-04-13 14:36 9.08480 -79.37705 144 ft 14 kts 226°
2026-04-13 14:36 9.08402 -79.37786 144 ft 18 kts 225°
2026-04-13 14:36 9.08300 -79.37890 144 ft 23 kts 226°
2026-04-13 14:36 9.08183 -79.38011 144 ft 25 kts 220°
2026-04-13 14:37 9.08032 -79.38106 144 ft 26 kts 210°
2026-04-13 14:37 9.07876 -79.38198 144 ft 26 kts 210°
2026-04-13 14:37 9.07717 -79.38292 144 ft 27 kts 210°
2026-04-13 14:37 9.07558 -79.38387 144 ft 26 kts 211°
2026-04-13 14:38 9.07405 -79.38484 144 ft 20 kts 212°
2026-04-13 14:38 9.07314 -79.38505 144 ft 14 kts 141°
2026-04-13 14:38 9.07264 -79.38420 144 ft 14 kts 120°
2026-04-13 14:38 9.07213 -79.38335 144 ft 14 kts 122°
2026-04-13 14:39 9.07165 -79.38252 144 ft 14 kts 116°
2026-04-13 14:39 9.07121 -79.38169 144 ft 13 kts 119°
2026-04-13 14:39 9.07050 -79.38148 144 ft 12 kts 204°
2026-04-13 14:39 9.06970 -79.38189 143 ft 14 kts 208°
2026-04-13 14:40 9.06870 -79.38244 143 ft 18 kts 208°
2026-04-13 14:40 9.06747 -79.38311 143 ft 22 kts 208°
2026-04-13 14:40 9.06600 -79.38390 143 ft 25 kts 208°
2026-04-13 14:40 9.06447 -79.38476 143 ft 25 kts 209°
2026-04-13 14:41 9.06292 -79.38563 144 ft 25 kts 209°
2026-04-13 14:41 9.06137 -79.38652 144 ft 26 kts 210°
2026-04-13 14:41 9.05983 -79.38743 144 ft 26 kts 210°
2026-04-13 14:41 9.05825 -79.38833 144 ft 26 kts 209°
2026-04-13 14:42 9.05669 -79.38924 144 ft 26 kts 211°
2026-04-13 14:42 9.05513 -79.39015 143 ft 26 kts 210°
2026-04-13 14:42 9.05357 -79.39107 144 ft 26 kts 210°
2026-04-13 14:42 9.05198 -79.39199 144 ft 26 kts 208°
2026-04-13 14:43 9.05036 -79.39287 144 ft 26 kts 209°
2026-04-13 14:43 9.04887 -79.39373 144 ft 17 kts 209°
2026-04-13 14:43 9.04806 -79.39330 145 ft 15 kts 120°
2026-04-13 14:43 9.04781 -79.39253 145 ft 10 kts 64°
2026-04-13 14:44 9.04947 -79.39155 145 ft 60 kts 28°
2026-04-13 14:44 9.05520 -79.38831 144 ft 126 kts 30°
2026-04-13 14:44 9.06451 -79.38314 213 ft 170 kts 26°
2026-04-13 14:44 9.07529 -79.37717 710 ft 173 kts 31°
2026-04-13 14:45 9.08453 -79.37023 1507 ft 157 kts 36°
2026-04-13 14:45 9.09281 -79.36366 2055 ft 151 kts 37°
2026-04-13 14:45 9.10129 -79.35678 2351 ft 162 kts 37°
2026-04-13 14:45 9.11047 -79.34959 2639 ft 172 kts 36°
2026-04-13 14:46 9.12024 -79.34209 2967 ft 180 kts 36°
2026-04-13 14:46 9.13051 -79.33426 3296 ft 191 kts 36°
2026-04-13 14:46 9.14147 -79.32593 3662 ft 201 kts 36°
2026-04-13 14:46 9.15317 -79.31714 3930 ft 220 kts 36°
2026-04-13 14:47 9.16596 -79.30746 4250 ft 238 kts 37°
2026-04-13 14:47 9.17940 -79.29730 4869 ft 245 kts 36°
2026-04-13 14:47 9.19323 -79.28681 5480 ft 250 kts 37°
2026-04-13 14:47 9.20729 -79.27614 6108 ft 256 kts 37°
2026-04-13 14:48 9.22170 -79.26520 6727 ft 260 kts 37°
2026-04-13 14:48 9.23623 -79.25416 7431 ft 262 kts 37°
2026-04-13 14:48 9.25085 -79.24305 8055 ft 266 kts 37°
2026-04-13 14:48 9.26578 -79.23173 8693 ft 268 kts 37°
2026-04-13 14:49 9.28080 -79.22034 9332 ft 272 kts 37°
2026-04-13 14:49 9.29613 -79.20869 9910 ft 277 kts 38°
2026-04-13 14:49 9.31184 -79.19677 10232 ft 291 kts 37°
2026-04-13 14:49 9.32975 -79.18592 10352 ft 312 kts 21°
2026-04-13 14:50 9.35186 -79.18282 10475 ft 335 kts 358°
2026-04-13 14:50 9.37564 -79.18601 10594 ft 353 kts 354°
2026-04-13 14:50 9.40051 -79.18982 10722 ft 369 kts 353°
2026-04-13 14:50 9.42625 -79.19391 10935 ft 379 kts 353°
2026-04-13 14:51 9.45245 -79.19810 11345 ft 383 kts 353°
2026-04-13 14:51 9.47899 -79.20199 11755 ft 387 kts 354°
2026-04-13 14:51 9.50581 -79.20513 12232 ft 389 kts 356°
2026-04-13 14:51 9.53289 -79.20779 12633 ft 393 kts 356°
2026-04-13 14:52 9.56027 -79.21030 13045 ft 397 kts 356°
2026-04-13 14:52 9.58790 -79.21288 13465 ft 401 kts 356°
2026-04-13 14:52 9.61578 -79.21561 13835 ft 405 kts 355°
2026-04-13 14:52 9.64393 -79.21847 14219 ft 408 kts 355°
2026-04-13 14:53 9.67220 -79.22141 14609 ft 410 kts 355°
2026-04-13 14:53 9.70067 -79.22441 15008 ft 412 kts 355°
2026-04-13 14:53 9.72919 -79.22742 15418 ft 414 kts 354°
2026-04-13 14:53 9.75793 -79.23046 15792 ft 416 kts 354°
2026-04-13 14:54 9.78680 -79.23353 16183 ft 418 kts 354°
2026-04-13 14:54 9.81580 -79.23661 16532 ft 420 kts 354°
2026-04-13 14:54 9.84491 -79.23968 16893 ft 422 kts 354°
2026-04-13 14:54 9.87417 -79.24273 17246 ft 424 kts 354°
2026-04-13 14:55 9.90360 -79.24577 17572 ft 426 kts 354°
2026-04-13 14:55 9.93313 -79.24884 17921 ft 428 kts 354°
2026-04-13 14:55 9.96285 -79.25193 18220 ft 430 kts 354°
2026-04-13 14:55 9.99267 -79.25507 18513 ft 431 kts 353°
2026-04-13 14:56 10.02256 -79.25824 18774 ft 434 kts 353°
2026-04-13 14:56 10.05265 -79.26142 19055 ft 435 kts 353°
2026-04-13 14:56 10.08277 -79.26458 19358 ft 435 kts 353°
2026-04-13 14:56 10.11295 -79.26771 19602 ft 437 kts 353°
2026-04-13 14:57 10.14329 -79.27086 19880 ft 438 kts 353°
2026-04-13 14:57 10.17373 -79.27405 20107 ft 441 kts 353°
2026-04-13 14:57 10.20425 -79.27728 20375 ft 442 kts 353°
2026-04-13 14:58 10.26573 -79.28380 20837 ft 446 kts 353°
2026-04-13 14:58 10.29661 -79.28704 21073 ft 447 kts 353°
2026-04-13 14:58 10.32766 -79.29029 21275 ft 449 kts 352°
2026-04-13 14:58 10.34865 -79.29250 21446 ft 450 kts 352°
2026-04-13 14:59 10.38999 -79.29688 21709 ft 452 kts 352°
2026-04-13 14:59 10.41122 -79.29839 21873 ft 453 kts 357°
2026-04-13 14:59 10.44279 -79.29647 22101 ft 456 kts
2026-04-13 14:59 10.47430 -79.29212 22294 ft 457 kts
2026-04-13 15:00 10.50583 -79.28776 22487 ft 459 kts
2026-04-13 15:00 10.53754 -79.28339 22682 ft 460 kts
2026-04-13 15:00 10.56928 -79.27905 22851 ft 461 kts
2026-04-13 15:00 10.60110 -79.27472 23026 ft 462 kts
2026-04-13 15:01 10.63303 -79.27037 23171 ft 464 kts
2026-04-13 15:01 10.66510 -79.26597 23329 ft 465 kts
2026-04-13 15:01 10.69721 -79.26156 23469 ft 467 kts
2026-04-13 15:01 10.72947 -79.25714 23613 ft 468 kts
2026-04-13 15:02 10.76177 -79.25275 23733 ft 469 kts
2026-04-13 15:02 10.79411 -79.24835 23864 ft 470 kts
2026-04-13 15:02 10.82655 -79.24392 23971 ft 471 kts
2026-04-13 15:02 10.85904 -79.23947 24104 ft 472 kts
2026-04-13 15:03 10.89157 -79.23504 24230 ft 472 kts
2026-04-13 15:03 10.92415 -79.23061 24353 ft 473 kts
2026-04-13 15:03 10.95681 -79.22617 24483 ft 473 kts
2026-04-13 15:03 10.98949 -79.22170 24599 ft 475 kts
2026-04-13 15:04 11.02224 -79.21717 24725 ft 475 kts
2026-04-13 15:04 11.05501 -79.21261 24840 ft 476 kts
2026-04-13 15:04 11.08789 -79.20802 24970 ft 477 kts
2026-04-13 15:04 11.12078 -79.20347 25089 ft 478 kts
2026-04-13 15:05 11.15373 -79.19897 25217 ft 478 kts
2026-04-13 15:05 11.18671 -79.19454 25336 ft 479 kts
2026-04-13 15:05 11.21978 -79.19010 25455 ft 480 kts
2026-04-13 15:05 11.25291 -79.18559 25583 ft 480 kts
2026-04-13 15:06 11.28607 -79.18103 25702 ft 481 kts
2026-04-13 15:06 11.31915 -79.17646 25892 ft 480 kts
2026-04-13 15:06 11.35224 -79.17189 26061 ft 480 kts
2026-04-13 15:06 11.38530 -79.16731 26238 ft 479 kts
2026-04-13 15:07 11.41834 -79.16274 26401 ft 479 kts
2026-04-13 15:07 11.45134 -79.15817 26588 ft 478 kts
2026-04-13 15:07 11.48428 -79.15362 26769 ft 478 kts
2026-04-13 15:07 11.51720 -79.14909 26990 ft 477 kts
2026-04-13 15:08 11.55010 -79.14462 27178 ft 476 kts
2026-04-13 15:08 11.58289 -79.14015 27384 ft 476 kts
2026-04-13 15:08 11.61568 -79.13567 27586 ft 475 kts
2026-04-13 15:08 11.64841 -79.13110 27787 ft 475 kts
2026-04-13 15:09 11.68110 -79.12591 28002 ft 475 kts
2026-04-13 15:09 11.71363 -79.12016 28194 ft 475 kts
2026-04-13 15:09 11.74612 -79.11408 28410 ft 474 kts
2026-04-13 15:09 11.77854 -79.10800 28619 ft 474 kts
2026-04-13 15:10 11.81098 -79.10200 28833 ft 473 kts
2026-04-13 15:10 11.84341 -79.09614 29042 ft 473 kts
2026-04-13 15:10 11.87582 -79.09042 29225 ft 473 kts
2026-04-13 15:10 11.90835 -79.08480 29415 ft 473 kts
2026-04-13 15:11 11.94082 -79.07917 29622 ft 473 kts
2026-04-13 15:11 11.97321 -79.07350 29838 ft 473 kts
2026-04-13 15:11 12.00567 -79.06775 30053 ft 473 kts
2026-04-13 15:11 12.03803 -79.06200 30241 ft 472 kts
2026-04-13 15:12 12.07038 -79.05630 30425 ft 472 kts
2026-04-13 15:12 12.10275 -79.05062 30626 ft 471 kts
2026-04-13 15:12 12.13507 -79.04490 30815 ft 471 kts
2026-04-13 15:12 12.16735 -79.03916 30989 ft 471 kts
2026-04-13 15:13 12.19963 -79.03345 31176 ft 471 kts
2026-04-13 15:13 12.23190 -79.02776 31346 ft 471 kts
2026-04-13 15:13 12.26422 -79.02207 31535 ft 471 kts
2026-04-13 15:13 12.29656 -79.01636 31722 ft 471 kts
2026-04-13 15:14 12.32884 -79.01064 31914 ft 471 kts
2026-04-13 15:14 12.36116 -79.00491 32113 ft 471 kts
2026-04-13 15:14 12.39343 -78.99922 32306 ft 471 kts
2026-04-13 15:14 12.42576 -78.99354 32517 ft 471 kts
2026-04-13 15:15 12.45803 -78.98786 32717 ft 471 kts
2026-04-13 15:15 12.49034 -78.98218 32919 ft 471 kts
2026-04-13 15:15 12.52302 -78.97644 33142 ft 471 kts
2026-04-13 15:15 12.55491 -78.97081 33347 ft 471 kts
2026-04-13 15:16 12.58717 -78.96509 33557 ft 471 kts
2026-04-13 15:16 12.61943 -78.95936 33773 ft 471 kts
2026-04-13 15:16 12.65171 -78.95360 33962 ft 471 kts
2026-04-13 15:17 12.71680 -78.94202 34013 ft 472 kts
2026-04-13 15:17 12.78146 -78.93054 34013 ft 472 kts
2026-04-13 15:18 12.84613 -78.91904 34016 ft 472 kts
2026-04-13 15:18 12.91078 -78.90757 34023 ft 471 kts
2026-04-13 15:19 12.97520 -78.89615 34014 ft 468 kts
2026-04-13 15:19 13.03937 -78.88481 34015 ft 468 kts
2026-04-13 15:20 13.10354 -78.87337 34015 ft 468 kts
2026-04-13 15:20 13.16778 -78.86193 34017 ft 468 kts
2026-04-13 15:21 13.23199 -78.85059 34017 ft 468 kts
2026-04-13 15:21 13.29620 -78.83912 34026 ft 468 kts
2026-04-13 15:22 13.36039 -78.82764 34025 ft 468 kts
2026-04-13 15:22 13.42461 -78.81624 34026 ft 468 kts
2026-04-13 15:23 13.48872 -78.80480 34024 ft 468 kts
2026-04-13 15:23 13.55286 -78.79337 34023 ft 468 kts
2026-04-13 15:24 13.61698 -78.78192 34035 ft 467 kts
2026-04-13 15:24 13.68099 -78.77041 34042 ft 466 kts
2026-04-13 15:25 13.74477 -78.75903 34040 ft 465 kts
2026-04-13 15:25 13.80851 -78.74763 34037 ft 465 kts
2026-04-13 15:26 13.87223 -78.73622 34035 ft 464 kts
2026-04-13 15:26 13.93584 -78.72483 34031 ft 464 kts
2026-04-13 15:27 13.99946 -78.71340 34052 ft 463 kts
2026-04-13 15:27 14.06279 -78.70205 34051 ft 461 kts
2026-04-13 15:28 14.12595 -78.69079 34049 ft 460 kts
2026-04-13 15:28 14.18903 -78.67950 34049 ft 460 kts
2026-04-13 15:29 14.25203 -78.66818 34038 ft 460 kts
2026-04-13 15:29 14.31504 -78.65682 34038 ft 460 kts
2026-04-13 15:30 14.37804 -78.64547 34038 ft 460 kts
2026-04-13 15:30 14.44104 -78.63413 34038 ft 459 kts
2026-04-13 15:31 14.50401 -78.62279 34040 ft 459 kts
2026-04-13 15:31 14.56697 -78.61146 34038 ft 459 kts
2026-04-13 15:32 14.62995 -78.60017 34032 ft 459 kts
2026-04-13 15:32 14.69284 -78.58884 34051 ft 459 kts
2026-04-13 15:33 14.75560 -78.57751 34054 ft 457 kts
2026-04-13 15:33 14.81829 -78.56621 34053 ft 457 kts
2026-04-13 15:34 14.91257 -78.54914 34047 ft 456 kts
2026-04-13 15:34 14.96451 -78.53975 34048 ft 456 kts
2026-04-13 15:35 15.02698 -78.52852 34053 ft 456 kts
2026-04-13 15:35 15.08951 -78.51779 34052 ft 455 kts
2026-04-13 15:36 15.15205 -78.50734 34049 ft 455 kts
2026-04-13 15:36 15.21447 -78.49671 34042 ft 455 kts
2026-04-13 15:37 15.27690 -78.48603 34031 ft 455 kts
2026-04-13 15:37 15.33933 -78.47529 34031 ft 455 kts
2026-04-13 15:38 15.40178 -78.46452 34035 ft 455 kts
2026-04-13 15:38 15.46429 -78.45377 34032 ft 455 kts
2026-04-13 15:39 15.52686 -78.44307 34037 ft 456 kts
2026-04-13 15:39 15.58942 -78.43234 34040 ft 456 kts
2026-04-13 15:40 15.65207 -78.42157 34041 ft 456 kts
2026-04-13 15:40 15.71476 -78.41088 34052 ft 456 kts
2026-04-13 15:41 15.77740 -78.40009 34053 ft 456 kts
2026-04-13 15:41 15.84003 -78.38924 34050 ft 456 kts
2026-04-13 15:42 15.90258 -78.37837 34046 ft 456 kts
2026-04-13 15:42 15.96513 -78.36766 34046 ft 456 kts
2026-04-13 15:43 16.02772 -78.35689 34046 ft 456 kts
2026-04-13 15:43 16.09031 -78.34603 34064 ft 456 kts
2026-04-13 15:44 16.15283 -78.33527 34069 ft 455 kts
2026-04-13 15:44 16.21525 -78.32447 34067 ft 455 kts
2026-04-13 15:45 16.27764 -78.31363 34067 ft 455 kts
2026-04-13 15:45 16.34009 -78.30283 34075 ft 455 kts
2026-04-13 15:46 16.40245 -78.29199 34090 ft 454 kts
2026-04-13 15:46 16.46466 -78.28117 34093 ft 452 kts
2026-04-13 15:47 16.52665 -78.27043 34085 ft 451 kts
2026-04-13 15:47 16.58848 -78.25972 34082 ft 450 kts
2026-04-13 15:48 16.65022 -78.24900 34082 ft 450 kts
2026-04-13 15:48 16.71192 -78.23827 34091 ft 449 kts
2026-04-13 15:49 16.77344 -78.22760 34088 ft 448 kts
2026-04-13 15:49 16.83481 -78.21696 34084 ft 447 kts
2026-04-13 15:50 16.89616 -78.20629 34082 ft 447 kts
2026-04-13 15:50 16.95746 -78.19561 34079 ft 446 kts
2026-04-13 15:51 17.01871 -78.18487 34076 ft 446 kts
2026-04-13 15:51 17.07996 -78.17417 34091 ft 446 kts
2026-04-13 15:52 17.14108 -78.16354 34088 ft 445 kts
2026-04-13 15:52 17.20209 -78.15293 34083 ft 444 kts
2026-04-13 15:53 17.26303 -78.14225 34080 ft 443 kts
2026-04-13 15:53 17.32383 -78.13163 34073 ft 443 kts
2026-04-13 15:54 17.38461 -78.12091 34066 ft 443 kts
2026-04-13 15:54 17.44573 -78.11014 34083 ft 442 kts
2026-04-13 15:55 17.50594 -78.09960 34082 ft 441 kts
2026-04-13 15:55 17.56686 -78.08896 34081 ft 441 kts
2026-04-13 15:56 17.62692 -78.07840 34080 ft 440 kts
2026-04-13 15:56 17.68771 -78.06770 34082 ft 440 kts
2026-04-13 15:57 17.74781 -78.05716 34066 ft 440 kts
2026-04-13 15:57 17.80867 -78.04651 34077 ft 440 kts
2026-04-13 15:58 17.86907 -78.03589 34068 ft 440 kts
2026-04-13 15:58 17.92947 -78.02524 34067 ft 440 kts
2026-04-13 15:59 17.98993 -78.01460 34073 ft 440 kts
2026-04-13 15:59 18.05035 -78.00391 34072 ft 440 kts
2026-04-13 16:00 18.11077 -77.99324 34089 ft 440 kts
2026-04-13 16:00 18.17115 -77.98255 34088 ft 440 kts
2026-04-13 16:01 18.23147 -77.97192 34098 ft 439 kts
2026-04-13 16:01 18.29173 -77.96131 34106 ft 439 kts
2026-04-13 16:02 18.35194 -77.95068 34114 ft 439 kts
2026-04-13 16:02 18.41218 -77.94000 34110 ft 439 kts
2026-04-13 16:03 18.47250 -77.92929 34107 ft 439 kts
2026-04-13 16:03 18.53221 -77.91361 34105 ft 447 kts 11°
2026-04-13 16:04 18.59131 -77.89331 34104 ft 447 kts 11°
2026-04-13 16:04 18.65046 -77.87308 34103 ft 447 kts 11°
2026-04-13 16:05 18.70960 -77.85293 34096 ft 447 kts 11°
2026-04-13 16:05 18.76872 -77.83278 34113 ft 447 kts 11°
2026-04-13 16:06 18.82782 -77.81248 34102 ft 447 kts 11°
2026-04-13 16:06 18.88693 -77.79222 34101 ft 446 kts 11°
2026-04-13 16:07 18.94599 -77.77198 34097 ft 447 kts 11°
2026-04-13 16:07 19.00510 -77.75171 34101 ft 446 kts 11°
2026-04-13 16:08 19.06421 -77.73142 34120 ft 446 kts 11°
2026-04-13 16:08 19.12323 -77.71115 34123 ft 446 kts 11°
2026-04-13 16:09 19.18213 -77.69087 34121 ft 445 kts 11°
2026-04-13 16:09 19.24096 -77.67058 34117 ft 444 kts 11°
2026-04-13 16:10 19.29979 -77.65035 34115 ft 444 kts 11°
2026-04-13 16:10 19.35853 -77.63013 34111 ft 444 kts 11°
2026-04-13 16:11 19.41727 -77.60981 34120 ft 444 kts 11°
2026-04-13 16:11 19.47589 -77.58956 34128 ft 443 kts 11°
2026-04-13 16:12 19.53450 -77.56985 34114 ft 439 kts
2026-04-13 16:12 19.58404 -77.56219 34108 ft 431 kts 359°
2026-04-13 16:13 19.64366 -77.55517 34101 ft 431 kts 359°
2026-04-13 16:13 19.70335 -77.54803 34120 ft 432 kts 360°
2026-04-13 16:14 19.76299 -77.54086 34120 ft 431 kts 360°
2026-04-13 16:14 19.82264 -77.53381 34119 ft 431 kts 360°
2026-04-13 16:15 19.88221 -77.52670 34116 ft 431 kts 360°
2026-04-13 16:15 19.94175 -77.51954 34118 ft 431 kts 360°
2026-04-13 16:16 20.00125 -77.51249 34111 ft 430 kts 360°
2026-04-13 16:16 20.06070 -77.50547 34129 ft 430 kts
2026-04-13 16:17 20.12009 -77.49843 34128 ft 429 kts
2026-04-13 16:17 20.17934 -77.49132 34128 ft 428 kts
2026-04-13 16:18 20.23893 -77.48415 34122 ft 428 kts
2026-04-13 16:18 20.29812 -77.47710 34125 ft 428 kts
2026-04-13 16:19 20.35726 -77.47005 34129 ft 428 kts
2026-04-13 16:19 20.41636 -77.46299 34131 ft 427 kts
2026-04-13 16:20 20.47534 -77.45595 34133 ft 426 kts
2026-04-13 16:20 20.53424 -77.44887 34131 ft 426 kts
2026-04-13 16:21 20.59313 -77.44397 34134 ft 423 kts 357°
2026-04-13 16:21 20.65184 -77.44289 34128 ft 422 kts 355°
2026-04-13 16:22 20.71049 -77.44224 34145 ft 422 kts 356°
2026-04-13 16:23 20.79844 -77.43973 34145 ft 421 kts 357°
2026-04-13 16:23 20.85705 -77.43773 34147 ft 421 kts 357°
2026-04-13 16:24 20.91554 -77.43581 34143 ft 421 kts 357°
2026-04-13 16:24 20.97406 -77.43413 34146 ft 421 kts 357°
2026-04-13 16:25 21.03256 -77.43235 34146 ft 421 kts 357°
2026-04-13 16:25 21.09107 -77.43061 34152 ft 421 kts 357°
2026-04-13 16:26 21.14961 -77.42883 34148 ft 421 kts 357°
2026-04-13 16:26 21.20814 -77.42698 34146 ft 421 kts 357°
2026-04-13 16:27 21.26670 -77.42520 34153 ft 421 kts 357°
2026-04-13 16:27 21.32524 -77.42350 34168 ft 421 kts 357°
2026-04-13 16:28 21.38378 -77.42170 34164 ft 421 kts 357°
2026-04-13 16:28 21.44230 -77.41996 34163 ft 421 kts 357°
2026-04-13 16:29 21.50081 -77.41845 34166 ft 421 kts 357°
2026-04-13 16:29 21.55929 -77.41694 34164 ft 421 kts 357°
2026-04-13 16:30 21.61784 -77.41537 34168 ft 420 kts 357°
2026-04-13 16:30 21.67630 -77.41371 34181 ft 420 kts 357°
2026-04-13 16:31 21.73475 -77.41210 34183 ft 420 kts 357°
2026-04-13 16:31 21.79310 -77.41051 34178 ft 419 kts 357°
2026-04-13 16:32 21.85146 -77.40892 34179 ft 419 kts 357°
2026-04-13 16:32 21.90975 -77.40737 34176 ft 419 kts 357°
2026-04-13 16:33 21.96804 -77.40578 34171 ft 419 kts 357°
2026-04-13 16:33 22.02622 -77.40421 34189 ft 419 kts 357°
2026-04-13 16:34 22.08450 -77.40270 34172 ft 418 kts 357°
2026-04-13 16:34 22.14267 -77.40120 34182 ft 418 kts 357°
2026-04-13 16:35 22.20083 -77.39959 34181 ft 418 kts 357°
2026-04-13 16:35 22.25898 -77.39791 34176 ft 418 kts 357°
2026-04-13 16:36 22.31716 -77.39631 34183 ft 418 kts 358°
2026-04-13 16:36 22.37528 -77.39459 34180 ft 418 kts 358°
2026-04-13 16:37 22.43344 -77.39286 34179 ft 418 kts 358°
2026-04-13 16:37 22.49158 -77.39122 34179 ft 418 kts 358°
2026-04-13 16:38 22.54970 -77.38955 34173 ft 418 kts 358°
2026-04-13 16:38 22.60781 -77.38783 34184 ft 418 kts 358°
2026-04-13 16:39 22.66598 -77.38615 34180 ft 419 kts 358°
2026-04-13 16:39 22.72428 -77.38452 34177 ft 419 kts 358°
2026-04-13 16:40 22.78255 -77.38280 34180 ft 419 kts 358°
2026-04-13 16:40 22.84091 -77.38106 34180 ft 419 kts 358°
2026-04-13 16:41 22.89926 -77.37932 34185 ft 419 kts 358°
2026-04-13 16:41 22.95758 -77.37764 34188 ft 420 kts 358°
2026-04-13 16:42 23.01595 -77.37597 34186 ft 420 kts 358°
2026-04-13 16:42 23.07439 -77.37427 34184 ft 420 kts 358°
2026-04-13 16:43 23.13289 -77.37256 34187 ft 420 kts 358°
2026-04-13 16:43 23.19138 -77.37078 34187 ft 420 kts 358°
2026-04-13 16:44 23.24991 -77.36903 34200 ft 421 kts 358°
2026-04-13 16:44 23.30846 -77.36726 34194 ft 421 kts 359°
2026-04-13 16:45 23.36705 -77.36550 34193 ft 421 kts 358°
2026-04-13 16:45 23.42567 -77.36379 34193 ft 422 kts 359°
2026-04-13 16:46 23.48437 -77.36203 34193 ft 422 kts 359°
2026-04-13 16:46 23.54310 -77.36026 34200 ft 422 kts 359°
2026-04-13 16:47 23.60175 -77.36027 34198 ft 421 kts 355°
2026-04-13 16:47 23.66026 -77.36421 34204 ft 421 kts 353°
2026-04-13 16:48 23.71875 -77.36875 34201 ft 422 kts 354°
2026-04-13 16:48 23.77739 -77.37257 34205 ft 422 kts 354°
2026-04-13 16:49 23.83613 -77.37591 34209 ft 423 kts 354°
2026-04-13 16:49 23.89489 -77.37926 34216 ft 423 kts 354°
2026-04-13 16:50 23.95369 -77.38265 34211 ft 423 kts 354°
2026-04-13 16:50 24.01258 -77.38622 34221 ft 424 kts 354°
2026-04-13 16:51 24.06149 -77.38914 34221 ft 424 kts 354°
2026-04-13 16:51 24.13036 -77.39315 34223 ft 424 kts 354°
2026-04-13 16:52 24.17942 -77.39605 34228 ft 424 kts 354°
2026-04-13 16:52 24.23839 -77.39957 34231 ft 424 kts 354°
2026-04-13 16:53 24.29739 -77.40313 34237 ft 425 kts 354°
2026-04-13 16:53 24.35640 -77.40662 34239 ft 425 kts 354°
2026-04-13 16:54 24.41545 -77.41001 34242 ft 425 kts 354°
2026-04-13 16:54 24.47447 -77.41355 34244 ft 425 kts 354°
2026-04-13 16:55 24.53356 -77.41713 34261 ft 425 kts 355°
2026-04-13 16:55 24.59258 -77.42061 34258 ft 424 kts 355°
2026-04-13 16:56 24.65151 -77.42409 34262 ft 424 kts 355°
2026-04-13 16:56 24.71045 -77.42764 34261 ft 424 kts 354°
2026-04-13 16:57 24.76935 -77.43118 34272 ft 424 kts 354°
2026-04-13 16:57 24.82819 -77.43473 34280 ft 424 kts 355°
2026-04-13 16:58 24.88703 -77.43823 34286 ft 424 kts 355°
2026-04-13 16:58 24.94594 -77.44172 34291 ft 424 kts 355°
2026-04-13 16:59 25.00478 -77.44523 34292 ft 424 kts 355°
2026-04-13 16:59 25.06370 -77.44881 34291 ft 424 kts 355°
2026-04-13 17:00 25.12256 -77.45245 34292 ft 424 kts 355°
2026-04-13 17:00 25.18141 -77.45607 34283 ft 424 kts 355°
2026-04-13 17:01 25.24037 -77.45973 34281 ft 424 kts 355°
2026-04-13 17:01 25.29939 -77.46337 34275 ft 425 kts 355°
2026-04-13 17:02 25.35841 -77.46699 34268 ft 425 kts 355°
2026-04-13 17:02 25.41742 -77.47062 34271 ft 425 kts 355°
2026-04-13 17:03 25.47643 -77.47421 34271 ft 425 kts 355°
2026-04-13 17:03 25.53559 -77.47787 34267 ft 426 kts 355°
2026-04-13 17:04 25.59472 -77.48162 34268 ft 426 kts 355°
2026-04-13 17:04 25.65387 -77.48526 34268 ft 426 kts 355°
2026-04-13 17:05 25.71347 -77.48884 34273 ft 426 kts 355°
2026-04-13 17:05 25.77229 -77.49231 34287 ft 426 kts 355°
2026-04-13 17:06 25.83192 -77.49585 34276 ft 426 kts 355°
2026-04-13 17:06 25.89073 -77.49928 34278 ft 426 kts 355°
2026-04-13 17:07 25.95031 -77.50279 34269 ft 426 kts 355°
2026-04-13 17:07 26.00955 -77.50631 34272 ft 426 kts 355°
2026-04-13 17:08 26.06882 -77.50982 34280 ft 427 kts 355°
2026-04-13 17:08 26.12810 -77.51329 34277 ft 427 kts 355°
2026-04-13 17:09 26.18698 -77.51674 34275 ft 426 kts 355°
2026-04-13 17:09 26.24624 -77.52022 34285 ft 426 kts 355°
2026-04-13 17:10 26.30549 -77.52369 34282 ft 426 kts 355°
2026-04-13 17:10 26.36515 -77.52712 34291 ft 426 kts 355°
2026-04-13 17:11 26.42440 -77.53064 34283 ft 426 kts 355°
2026-04-13 17:11 26.48368 -77.53424 34279 ft 427 kts 355°
2026-04-13 17:12 26.54296 -77.53778 34287 ft 427 kts 355°
2026-04-13 17:12 26.60226 -77.54123 34286 ft 427 kts 355°
2026-04-13 17:13 26.66173 -77.54480 34294 ft 428 kts 355°
2026-04-13 17:13 26.72128 -77.54834 34300 ft 428 kts 355°
2026-04-13 17:14 26.78075 -77.55190 34305 ft 428 kts 355°
2026-04-13 17:14 26.84019 -77.55550 34315 ft 428 kts 355°
2026-04-13 17:15 26.89968 -77.55906 34302 ft 428 kts 355°
2026-04-13 17:15 26.95921 -77.56255 34315 ft 428 kts 355°
2026-04-13 17:16 27.01870 -77.56609 34305 ft 428 kts 355°
2026-04-13 17:16 27.07822 -77.56965 34304 ft 428 kts 355°
2026-04-13 17:17 27.13773 -77.57323 34322 ft 429 kts 355°
2026-04-13 17:17 27.16757 -77.57503 34536 ft 429 kts 355°
2026-04-13 17:17 27.19733 -77.57682 34806 ft 428 kts 355°
2026-04-13 17:17 27.22703 -77.57861 35075 ft 427 kts 355°
2026-04-13 17:18 27.25672 -77.58040 35341 ft 427 kts 355°
2026-04-13 17:18 27.28636 -77.58217 35601 ft 426 kts 355°
2026-04-13 17:18 27.31597 -77.58394 35854 ft 426 kts 355°
2026-04-13 17:18 27.34559 -77.58573 36099 ft 426 kts 355°
2026-04-13 17:19 27.37516 -77.58752 36281 ft 426 kts 355°
2026-04-13 17:19 27.43426 -77.59106 36325 ft 425 kts 355°
2026-04-13 17:20 27.49332 -77.59462 36321 ft 426 kts 354°
2026-04-13 17:20 27.55268 -77.59829 36321 ft 428 kts 354°
2026-04-13 17:21 27.61225 -77.60188 36325 ft 428 kts 355°
2026-04-13 17:21 27.67174 -77.60544 36328 ft 429 kts 354°
2026-04-13 17:22 27.73134 -77.60902 36327 ft 429 kts 354°
2026-04-13 17:22 27.79091 -77.61266 36336 ft 429 kts 354°
2026-04-13 17:23 27.85043 -77.61625 36337 ft 429 kts 355°
2026-04-13 17:23 27.91003 -77.61981 36331 ft 429 kts 354°
2026-04-13 17:24 27.96956 -77.62341 36322 ft 429 kts 354°
2026-04-13 17:24 28.02915 -77.62709 36331 ft 429 kts 354°
2026-04-13 17:25 28.08882 -77.63077 36327 ft 429 kts 354°
2026-04-13 17:25 28.14849 -77.63434 36335 ft 429 kts 355°
2026-04-13 17:26 28.20820 -77.63738 36323 ft 430 kts 355°
2026-04-13 17:26 28.26805 -77.64021 36332 ft 430 kts 355°
2026-04-13 17:27 28.35779 -77.64468 36339 ft 430 kts 355°
2026-04-13 17:27 28.41763 -77.64775 36339 ft 431 kts 355°
2026-04-13 17:28 28.47756 -77.65077 36336 ft 431 kts 355°
2026-04-13 17:28 28.53751 -77.65371 36344 ft 432 kts 355°
2026-04-13 17:29 28.59751 -77.65670 36350 ft 432 kts 355°
2026-04-13 17:29 28.65759 -77.65982 36357 ft 432 kts 355°
2026-04-13 17:30 28.70788 -77.66238 36354 ft 432 kts 355°
2026-04-13 17:30 28.76799 -77.66542 36352 ft 432 kts 355°
2026-04-13 17:31 28.82815 -77.66845 36359 ft 433 kts 355°
2026-04-13 17:31 28.88830 -77.67157 36368 ft 433 kts 355°
2026-04-13 17:32 28.94848 -77.67459 36363 ft 433 kts 355°
2026-04-13 17:32 29.00861 -77.67768 36358 ft 433 kts 355°
2026-04-13 17:33 29.06883 -77.68073 36356 ft 433 kts 355°
2026-04-13 17:33 29.12904 -77.68376 36356 ft 433 kts 355°
2026-04-13 17:34 29.21940 -77.68828 36358 ft 433 kts 355°
2026-04-13 17:35 29.27966 -77.69138 36369 ft 433 kts 355°
2026-04-13 17:35 29.33991 -77.69449 36364 ft 434 kts 355°
2026-04-13 17:36 29.40020 -77.69759 36364 ft 434 kts 355°
2026-04-13 17:36 29.46052 -77.70065 36363 ft 434 kts 355°
2026-04-13 17:37 29.52084 -77.70378 36366 ft 434 kts 355°
2026-04-13 17:37 29.58115 -77.70698 36371 ft 434 kts 355°
2026-04-13 17:38 29.64149 -77.71012 36370 ft 434 kts 355°
2026-04-13 17:38 29.70185 -77.71315 36369 ft 434 kts 355°
2026-04-13 17:39 29.76221 -77.71629 36365 ft 434 kts 355°
2026-04-13 17:39 29.82257 -77.71945 36365 ft 434 kts 355°
2026-04-13 17:40 29.88295 -77.72263 36368 ft 435 kts 354°
2026-04-13 17:40 29.94340 -77.72578 36368 ft 435 kts 355°
2026-04-13 17:41 30.00391 -77.72888 36368 ft 435 kts 355°
2026-04-13 17:41 30.06439 -77.73199 36373 ft 435 kts 355°
2026-04-13 17:42 30.12491 -77.73520 36373 ft 435 kts 354°
2026-04-13 17:42 30.18544 -77.73841 36377 ft 435 kts 354°
2026-04-13 17:43 30.24591 -77.74160 36377 ft 435 kts 354°
2026-04-13 17:43 30.30646 -77.74474 36377 ft 435 kts 355°
2026-04-13 17:44 30.36697 -77.74785 36374 ft 435 kts 355°
2026-04-13 17:44 30.42754 -77.75113 36378 ft 435 kts 354°
2026-04-13 17:45 30.48799 -77.75562 36373 ft 435 kts 353°
2026-04-13 17:45 30.54848 -77.76050 36374 ft 436 kts 353°
2026-04-13 17:46 30.60890 -77.76526 36375 ft 436 kts 353°
2026-04-13 17:46 30.66945 -77.76987 36381 ft 436 kts 353°
2026-04-13 17:47 30.73001 -77.77437 36374 ft 436 kts 353°
2026-04-13 17:47 30.79064 -77.77895 36372 ft 437 kts 353°
2026-04-13 17:48 30.85128 -77.78363 36370 ft 437 kts 353°
2026-04-13 17:48 30.91199 -77.78829 36375 ft 437 kts 353°
2026-04-13 17:49 30.97271 -77.79292 36375 ft 437 kts 353°
2026-04-13 17:49 31.03349 -77.79760 36378 ft 438 kts 353°
2026-04-13 17:50 31.09433 -77.80220 36374 ft 438 kts 353°
2026-04-13 17:50 31.15521 -77.80686 36376 ft 438 kts 353°
2026-04-13 17:51 31.21609 -77.81152 36376 ft 439 kts 353°
2026-04-13 17:51 31.27693 -77.81618 36376 ft 439 kts 353°
2026-04-13 17:52 31.33800 -77.82092 36375 ft 439 kts 353°
2026-04-13 17:52 31.39907 -77.82572 36376 ft 440 kts 353°
2026-04-13 17:53 31.45022 -77.82967 36374 ft 440 kts 353°
2026-04-13 17:53 31.52125 -77.83510 36379 ft 440 kts 353°
2026-04-13 17:54 31.58246 -77.83982 36373 ft 441 kts 352°
2026-04-13 17:54 31.64369 -77.84455 36372 ft 441 kts 352°
2026-04-13 17:55 31.70504 -77.84929 36376 ft 442 kts 352°
2026-04-13 17:55 31.76642 -77.85414 36384 ft 442 kts 352°
2026-04-13 17:56 31.82783 -77.85889 36379 ft 443 kts 352°
2026-04-13 17:56 31.88931 -77.86361 36378 ft 443 kts 352°
2026-04-13 17:57 31.95088 -77.86766 36378 ft 444 kts 353°
2026-04-13 17:57 32.01263 -77.87098 36379 ft 444 kts 353°
2026-04-13 17:58 32.07437 -77.87433 36389 ft 444 kts 353°
2026-04-13 17:58 32.13617 -77.87801 36385 ft 445 kts 353°
2026-04-13 17:59 32.19794 -77.88181 36384 ft 445 kts 353°
2026-04-13 17:59 32.25983 -77.88542 36385 ft 445 kts 353°
2026-04-13 18:00 32.32215 -77.88894 36398 ft 445 kts 353°
2026-04-13 18:00 32.38405 -77.89248 36393 ft 445 kts 353°
2026-04-13 18:01 32.44547 -77.89604 36389 ft 445 kts 353°
2026-04-13 18:01 32.50733 -77.89976 36386 ft 445 kts 353°
2026-04-13 18:02 32.56961 -77.90350 36385 ft 445 kts 353°
2026-04-13 18:02 32.63114 -77.90708 36391 ft 446 kts 353°
2026-04-13 18:03 32.69312 -77.91068 36390 ft 446 kts 353°
2026-04-13 18:03 32.75547 -77.91436 36391 ft 446 kts 353°
2026-04-13 18:04 32.81747 -77.91811 36388 ft 446 kts 353°
2026-04-13 18:04 32.87948 -77.92177 36389 ft 446 kts 353°
2026-04-13 18:05 32.94155 -77.92540 36386 ft 446 kts 353°
2026-04-13 18:05 33.00354 -77.92909 36385 ft 446 kts 353°
2026-04-13 18:06 33.06584 -77.92464 36383 ft 455 kts
2026-04-13 18:06 33.12717 -77.90495 36383 ft 457 kts 11°
2026-04-13 18:07 33.18855 -77.88506 36379 ft 457 kts 10°
2026-04-13 18:07 33.23962 -77.86851 36380 ft 458 kts 11°
2026-04-13 18:08 33.30112 -77.84851 36379 ft 458 kts 11°
2026-04-13 18:08 33.36267 -77.82853 36391 ft 458 kts 10°
2026-04-13 18:09 33.42419 -77.80863 36384 ft 458 kts 10°
2026-04-13 18:09 33.48574 -77.78861 36379 ft 459 kts 10°
2026-04-13 18:10 33.54734 -77.76844 36373 ft 459 kts 10°
2026-04-13 18:10 33.60899 -77.74824 36391 ft 459 kts 10°
2026-04-13 18:11 33.67068 -77.72801 36388 ft 460 kts 10°
2026-04-13 18:11 33.73304 -77.71281 36384 ft 457 kts
2026-04-13 18:12 33.79558 -77.69930 36386 ft 457 kts
2026-04-13 18:12 33.85816 -77.68578 36394 ft 457 kts
2026-04-13 18:13 33.92077 -77.67210 36388 ft 457 kts
2026-04-13 18:13 33.98339 -77.65837 36387 ft 458 kts
2026-04-13 18:14 34.04645 -77.64452 36385 ft 458 kts
2026-04-13 18:14 34.10915 -77.63080 36393 ft 458 kts
2026-04-13 18:15 34.17185 -77.61706 36387 ft 458 kts
2026-04-13 18:15 34.23458 -77.60328 36383 ft 458 kts
2026-04-13 18:16 34.29734 -77.58951 36383 ft 458 kts
2026-04-13 18:16 34.36008 -77.57562 36398 ft 458 kts
2026-04-13 18:17 34.42281 -77.56164 36388 ft 458 kts
2026-04-13 18:17 34.48558 -77.54776 36374 ft 459 kts
2026-04-13 18:18 34.54679 -77.52384 36368 ft 470 kts 21°
2026-04-13 18:18 34.60542 -77.48866 36357 ft 470 kts 21°
2026-04-13 18:19 34.66410 -77.45340 36360 ft 471 kts 21°
2026-04-13 18:19 34.72288 -77.41817 36343 ft 471 kts 21°
2026-04-13 18:20 34.78159 -77.38288 36346 ft 471 kts 21°
2026-04-13 18:20 34.84040 -77.34758 36377 ft 471 kts 21°
2026-04-13 18:21 34.89925 -77.31219 36366 ft 472 kts 21°
2026-04-13 18:21 34.95806 -77.27666 36357 ft 472 kts 21°
2026-04-13 18:22 35.01698 -77.24102 36350 ft 473 kts 21°
2026-04-13 18:22 35.07594 -77.20532 36366 ft 473 kts 21°
2026-04-13 18:23 35.13487 -77.16952 36364 ft 473 kts 21°
2026-04-13 18:23 35.19374 -77.13372 36361 ft 473 kts 21°
2026-04-13 18:24 35.25267 -77.09792 36353 ft 473 kts 21°
2026-04-13 18:24 35.31158 -77.06210 36343 ft 472 kts 21°
2026-04-13 18:25 35.37039 -77.02618 36341 ft 472 kts 21°
2026-04-13 18:25 35.42920 -76.99021 36337 ft 473 kts 21°
2026-04-13 18:26 35.48806 -76.95421 36326 ft 472 kts 21°
2026-04-13 18:26 35.54686 -76.91819 36342 ft 473 kts 21°
2026-04-13 18:27 35.60574 -76.88210 36334 ft 473 kts 21°
2026-04-13 18:27 35.66476 -76.84625 36340 ft 473 kts 21°
2026-04-13 18:28 35.72378 -76.81046 36335 ft 473 kts 21°
2026-04-13 18:28 35.78275 -76.77455 36349 ft 473 kts 21°
2026-04-13 18:29 35.84177 -76.73842 36339 ft 473 kts 21°
2026-04-13 18:29 35.90077 -76.70231 36326 ft 474 kts 21°
2026-04-13 18:30 35.95932 -76.66467 36321 ft 475 kts 23°
2026-04-13 18:30 36.01717 -76.62496 36336 ft 476 kts 24°
2026-04-13 18:31 36.07503 -76.58510 36324 ft 476 kts 23°
2026-04-13 18:31 36.13310 -76.54569 36313 ft 476 kts 23°
2026-04-13 18:32 36.19131 -76.50648 36315 ft 476 kts 23°
2026-04-13 18:32 36.24988 -76.46688 36318 ft 476 kts 23°
2026-04-13 18:33 36.30793 -76.42742 36298 ft 476 kts 23°
2026-04-13 18:33 36.36601 -76.38778 36295 ft 476 kts 23°
2026-04-13 18:34 36.45318 -76.32825 36314 ft 477 kts 23°
2026-04-13 18:34 36.51134 -76.28851 36302 ft 477 kts 23°
2026-04-13 18:35 36.56953 -76.24869 36277 ft 478 kts 23°
2026-04-13 18:35 36.62772 -76.20873 36300 ft 478 kts 23°
2026-04-13 18:36 36.68594 -76.16860 36314 ft 478 kts 23°
2026-04-13 18:36 36.74416 -76.12844 36305 ft 479 kts 23°
2026-04-13 18:37 36.80244 -76.08831 36259 ft 479 kts 23°
2026-04-13 18:37 36.86073 -76.04802 36260 ft 479 kts 23°
2026-04-13 18:38 36.91861 -76.00796 36273 ft 479 kts 23°
2026-04-13 18:38 36.97690 -75.96764 36257 ft 479 kts 23°
2026-04-13 18:39 37.03518 -75.92712 36249 ft 479 kts 23°
2026-04-13 18:39 37.09419 -75.88904 36239 ft 472 kts 14°
2026-04-13 18:40 37.15707 -75.86589 36239 ft 467 kts
2026-04-13 18:40 37.21977 -75.84434 36236 ft 468 kts
2026-04-13 18:41 37.28257 -75.82261 36232 ft 468 kts
2026-04-13 18:41 37.34494 -75.80093 36243 ft 468 kts
2026-04-13 18:42 37.40806 -75.77884 36233 ft 468 kts
2026-04-13 18:42 37.47087 -75.75693 36225 ft 468 kts
2026-04-13 18:43 37.53353 -75.73504 36218 ft 468 kts
2026-04-13 18:43 37.59623 -75.71302 36218 ft 468 kts
2026-04-13 18:44 37.65853 -75.69116 36216 ft 468 kts
2026-04-13 18:44 37.71109 -75.67271 36217 ft 468 kts
2026-04-13 18:45 37.78402 -75.64706 36233 ft 468 kts
2026-04-13 18:45 37.83620 -75.62595 36225 ft 476 kts 18°
2026-04-13 18:46 37.89347 -75.58195 36223 ft 485 kts 29°
2026-04-13 18:46 37.94912 -75.53348 36220 ft 485 kts 29°
2026-04-13 18:47 38.00478 -75.48499 36218 ft 486 kts 28°
2026-04-13 18:47 38.06040 -75.43631 36200 ft 486 kts 29°
2026-04-13 18:48 38.11573 -75.38652 36198 ft 488 kts 30°
2026-04-13 18:48 38.17066 -75.33601 36199 ft 488 kts 30°
2026-04-13 18:49 38.22575 -75.28581 36222 ft 485 kts 26°
2026-04-13 18:49 38.28574 -75.25022 36206 ft 471 kts 12°
2026-04-13 18:50 38.34773 -75.22286 36203 ft 472 kts 12°
2026-04-13 18:50 38.40969 -75.19530 36226 ft 472 kts 12°
2026-04-13 18:51 38.47178 -75.16763 36206 ft 473 kts 12°
2026-04-13 18:51 38.53391 -75.13995 36191 ft 473 kts 12°
2026-04-13 18:52 38.59605 -75.11213 36175 ft 474 kts 12°
2026-04-13 18:52 38.65587 -75.07478 36168 ft 489 kts 30°
2026-04-13 18:53 38.70686 -75.01571 36161 ft 497 kts 39°
2026-04-13 18:53 38.75614 -74.95359 36162 ft 497 kts 39°
2026-04-13 18:54 38.80600 -74.89226 36161 ft 496 kts 37°
2026-04-13 18:54 38.85784 -74.83421 36171 ft 495 kts 34°
2026-04-13 18:55 38.91030 -74.77697 36162 ft 496 kts 35°
2026-04-13 18:55 38.96309 -74.72006 36157 ft 492 kts 29°
2026-04-13 18:56 39.01898 -74.66939 36171 ft 492 kts 29°
2026-04-13 18:56 39.07508 -74.61884 36163 ft 492 kts 28°
2026-04-13 18:57 39.13118 -74.56829 36158 ft 493 kts 29°
2026-04-13 18:57 39.18474 -74.51207 36150 ft 498 kts 34°
2026-04-13 18:58 39.21120 -74.48325 35937 ft 499 kts 34°
2026-04-13 18:58 39.23772 -74.45430 35433 ft 499 kts 34°
2026-04-13 18:58 39.26424 -74.42534 34944 ft 499 kts 34°
2026-04-13 18:58 39.29070 -74.39624 34460 ft 500 kts 35°
2026-04-13 18:59 39.31683 -74.36660 34018 ft 500 kts 36°
2026-04-13 18:59 39.34270 -74.33646 33564 ft 501 kts 36°
2026-04-13 18:59 39.36844 -74.30604 33119 ft 502 kts 37°
2026-04-13 18:59 39.39415 -74.27556 32681 ft 503 kts 37°
2026-04-13 19:00 39.41126 -74.25536 32407 ft 503 kts 37°
2026-04-13 19:00 39.44605 -74.21467 31835 ft 504 kts 35°
2026-04-13 19:00 39.47376 -74.18704 31420 ft 502 kts 31°
2026-04-13 19:00 39.50179 -74.15994 30998 ft 504 kts 31°
2026-04-13 19:01 39.52846 -74.13017 30589 ft 512 kts 41°
2026-04-13 19:01 39.55183 -74.09504 30182 ft 516 kts 46°
2026-04-13 19:01 39.57472 -74.05914 29698 ft 517 kts 46°
2026-04-13 19:01 39.59765 -74.02307 29241 ft 518 kts 46°
2026-04-13 19:02 39.62064 -73.98697 28780 ft 519 kts 46°
2026-04-13 19:02 39.64361 -73.95091 28323 ft 519 kts 46°
2026-04-13 19:02 39.66666 -73.91470 27889 ft 520 kts 46°
2026-04-13 19:02 39.68968 -73.87845 27455 ft 521 kts 46°
2026-04-13 19:03 39.71269 -73.84211 27029 ft 522 kts 46°
2026-04-13 19:03 39.73574 -73.80573 26610 ft 522 kts 46°
2026-04-13 19:03 39.75874 -73.76938 26209 ft 519 kts 46°
2026-04-13 19:03 39.78161 -73.73326 25803 ft 516 kts 46°
2026-04-13 19:04 39.80438 -73.69723 25397 ft 514 kts 46°
2026-04-13 19:04 39.82700 -73.66138 25002 ft 512 kts 46°
2026-04-13 19:04 39.84950 -73.62563 24598 ft 508 kts 46°
2026-04-13 19:04 39.87005 -73.59287 24246 ft 504 kts 46°
2026-04-13 19:05 39.89219 -73.55759 23863 ft 501 kts 45°
2026-04-13 19:05 39.91605 -73.52516 23390 ft 492 kts 37°
2026-04-13 19:05 39.94124 -73.49540 22880 ft 487 kts 37°
2026-04-13 19:05 39.96631 -73.46588 22365 ft 484 kts 37°
2026-04-13 19:06 39.99127 -73.43653 21842 ft 481 kts 37°
2026-04-13 19:06 40.01596 -73.40741 21341 ft 476 kts 37°
2026-04-13 19:06 40.04040 -73.37851 20848 ft 472 kts 37°
2026-04-13 19:06 40.06462 -73.34983 20361 ft 468 kts 37°
2026-04-13 19:07 40.08855 -73.32140 19880 ft 464 kts 37°
2026-04-13 19:07 40.11230 -73.29310 19408 ft 459 kts 38°
2026-04-13 19:07 40.13609 -73.26469 18955 ft 455 kts 38°
2026-04-13 19:07 40.15937 -73.23691 18493 ft 452 kts 38°
2026-04-13 19:08 40.18209 -73.20977 17996 ft 445 kts 38°
2026-04-13 19:08 40.20474 -73.18269 17475 ft 437 kts 38°
2026-04-13 19:08 40.22700 -73.15608 17041 ft 429 kts 38°
2026-04-13 19:08 40.24904 -73.12967 16645 ft 419 kts 37°
2026-04-13 19:09 40.27000 -73.10453 16266 ft 410 kts 37°
2026-04-13 19:09 40.29080 -73.07956 15901 ft 401 kts 37°
2026-04-13 19:09 40.31113 -73.05517 15559 ft 393 kts 37°
2026-04-13 19:09 40.33135 -73.03094 15191 ft 385 kts 36°
2026-04-13 19:10 40.35073 -73.00775 14834 ft 379 kts 36°
2026-04-13 19:10 40.37006 -72.98462 14484 ft 373 kts 36°
2026-04-13 19:10 40.38907 -72.96183 14141 ft 368 kts 36°
2026-04-13 19:10 40.40808 -72.93895 13777 ft 364 kts 36°
2026-04-13 19:11 40.42638 -72.91688 13385 ft 360 kts 36°
2026-04-13 19:11 40.44469 -72.89475 12999 ft 357 kts 36°
2026-04-13 19:11 40.46290 -72.87274 12609 ft 354 kts 37°
2026-04-13 19:11 40.48093 -72.85095 12224 ft 351 kts 37°
2026-04-13 19:12 40.49987 -72.83064 11867 ft 343 kts 27°
2026-04-13 19:12 40.52001 -72.81565 11505 ft 333 kts 17°
2026-04-13 19:12 40.54140 -72.80530 11139 ft 323 kts
2026-04-13 19:12 40.56314 -72.79964 10777 ft 314 kts 357°
2026-04-13 19:13 40.58460 -72.79848 10419 ft 306 kts 350°
2026-04-13 19:13 40.60615 -72.79852 10060 ft 305 kts 351°
2026-04-13 19:13 40.62734 -72.79849 9678 ft 304 kts 351°
2026-04-13 19:13 40.64822 -72.79845 9296 ft 303 kts 351°
2026-04-13 19:14 40.66959 -72.79843 8903 ft 303 kts 351°
2026-04-13 19:14 40.69057 -72.79846 8537 ft 302 kts 351°
2026-04-13 19:14 40.71157 -72.79853 8161 ft 301 kts 351°
2026-04-13 19:14 40.73252 -72.79860 7789 ft 301 kts 351°
2026-04-13 19:15 40.75352 -72.79865 7421 ft 301 kts 351°
2026-04-13 19:15 40.77434 -72.79868 7026 ft 298 kts 351°
2026-04-13 19:15 40.79501 -72.79871 6573 ft 297 kts 351°
2026-04-13 19:15 40.81561 -72.79877 6080 ft 298 kts 352°
2026-04-13 19:16 40.83640 -72.79885 5583 ft 297 kts 352°
2026-04-13 19:16 40.85694 -72.79886 5089 ft 293 kts 352°
2026-04-13 19:16 40.87705 -72.79881 4641 ft 285 kts 352°
2026-04-13 19:16 40.89613 -72.80107 4268 ft 263 kts 333°
2026-04-13 19:17 40.91123 -72.81183 3927 ft 236 kts 310°
2026-04-13 19:17 40.92098 -72.82797 3561 ft 217 kts 291°
2026-04-13 19:17 40.92535 -72.84628 3197 ft 204 kts 274°
2026-04-13 19:17 40.92502 -72.86458 2828 ft 197 kts 263°
2026-04-13 19:18 40.92369 -72.88243 2546 ft 192 kts 264°
2026-04-13 19:18 40.92247 -72.89966 2295 ft 185 kts 263°
2026-04-13 19:18 40.92132 -72.91621 2084 ft 174 kts 263°
2026-04-13 19:18 40.92021 -72.93109 2021 ft 151 kts 260°
2026-04-13 19:19 40.91635 -72.94322 1988 ft 140 kts 239°
2026-04-13 19:19 40.90977 -72.95258 1999 ft 137 kts 232°
2026-04-13 19:19 40.90314 -72.96135 2005 ft 133 kts 232°
2026-04-13 19:19 40.89667 -72.96992 2016 ft 131 kts 232°
2026-04-13 19:20 40.89018 -72.97851 2019 ft 132 kts 232°
2026-04-13 19:20 40.88368 -72.98710 2022 ft 131 kts 231°
2026-04-13 19:20 40.87723 -72.99563 2016 ft 132 kts 231°
2026-04-13 19:20 40.87074 -73.00419 1928 ft 131 kts 230°
2026-04-13 19:21 40.86434 -73.01264 1801 ft 127 kts 230°
2026-04-13 19:21 40.85837 -73.02052 1650 ft 118 kts 232°
2026-04-13 19:21 40.85264 -73.02808 1502 ft 116 kts 230°
2026-04-13 19:21 40.84696 -73.03558 1354 ft 114 kts 229°
2026-04-13 19:22 40.84132 -73.04303 1212 ft 117 kts 229°
2026-04-13 19:22 40.83747 -73.04813 1120 ft 119 kts 228°
2026-04-13 19:22 40.83157 -73.05598 960 ft 122 kts 226°
2026-04-13 19:22 40.82550 -73.06412 807 ft 124 kts 224°
2026-04-13 19:23 40.81938 -73.07220 619 ft 128 kts 223°
2026-04-13 19:23 40.81297 -73.08054 417 ft 130 kts 221°
2026-04-13 19:23 40.80654 -73.08901 238 ft 129 kts 222°
2026-04-13 19:23 40.80038 -73.09709 110 ft 120 kts 223°
2026-04-13 19:24 40.79573 -73.10313 99 ft 56 kts 224°
2026-04-13 19:24 40.79457 -73.10465 99 ft 15 kts 225°
2026-04-13 19:24 40.79376 -73.10573 102 ft 18 kts 226°
2026-04-13 19:24 40.79283 -73.10697 101 ft 20 kts 219°
2026-04-13 19:25 40.79160 -73.10721 102 ft 14 kts 179°
2026-04-13 19:25 40.79112 -73.10665 102 ft 12 kts 89°
2026-04-13 19:25 40.79115 -73.10543 100 ft 15 kts 90°
2026-04-13 19:25 40.79114 -73.10397 99 ft 17 kts 90°
2026-04-13 19:26 40.79114 -73.10225 97 ft 20 kts 90°
2026-04-13 19:26 40.79113 -73.10036 94 ft 19 kts 90°
2026-04-13 19:26 40.79114 -73.09924 93 ft 13 kts 89°
2026-04-13 19:26 40.79114 -73.09794 91 ft 15 kts 91°
2026-04-13 19:27 40.79113 -73.09640 90 ft 18 kts 90°
2026-04-13 19:27 40.79106 -73.09491 89 ft 17 kts 114°
2026-04-13 19:27 40.79041 -73.09400 89 ft 12 kts 135°
2026-04-13 19:27 40.78992 -73.09344 91 ft 6 kts 160°
2026-04-13 19:28 40.78964 -73.09354 91 ft 4 kts 209°
2026-04-13 19:28 40.78948 -73.09374 91 ft 2 kts 222°
2026-04-13 19:28 40.78943 -73.09379 90 ft 0 kts 223°